Location: ??????
(55.8274°N, 37.9338°E)
Time: 15:27:16
(UTC+00:00)

Cosmos 1726 - Pass Details

Date: 14 April 2024
Orbit: 393 x 396 km, 82.5° (Epoch: 18 May)

Event Time Altitude Azimuth Distance (km) Brightness Sun altitude
Rises 00:40:50 0° 339° (NNW) 2,352 5.8 -13.5°
Reaches altitude 10° 00:43:02 10° 327° (NNW) 1,491 4.6 -13.3°
Maximum altitude 00:45:48 27° 268° (W) 841 2.8 -13.0°
Enters shadow 00:46:39 24° 241° (WSW) 920 2.9 -12.9°
